Regional Weather Roundup
Issued by NWS Sterling, VA

Home | Current Version | Previous Version | Graphics & Text | Print | Product List | Glossary On
Versions: 1 2 3 4 5 6 7 8 9 10 11 12 13 14 15 16 17 18 19 20 21 22 23 24 25 26 27 28 29 30 31 32 33 34 35 36 37 38 39 40 41 42 43 44 45 46 47 48 49 50
000
ASUS41 KLWX 260810
RWRLWX

REGIONAL WEATHER ROUNDUP
NATIONAL WEATHER SERVICE BALTIMORE MD/WASHINGTON DC
400 AM EDT TUE MAY 26 2015

Note: "FAIR" indicates few or no clouds below 12,000 feet
with no significant weather and/or obstructions to visibility.
 TC=TEMPERATURE CELSIUS

 * =Non NWS site. Station does not report precipitation (e.g. rain,
    snow, etc.), thunder, or fog.

DCZ001-MDZ009-015-VAZ040>042-051-053>054-260900-
WASHINGTON METRO

CITY           SKY/WX    TMP DP  RH WIND       PRES   REMARKS
WASHINGTON NAT PTCLDY    70  59  68 S13       30.20S
DULLES         PTCLDY    66  56  70 S10       30.19S
ANDREWS AFB    CLEAR     66  59  77 S10       30.19F
FT BELVOIR     CLEAR     67  59  76 VRB5      30.20S
QUANTICO       PTCLDY    68  58  70 SW9       30.21F
COLLEGE PARK*  CLEAR     68  59  73 S6        30.19F
LEESBURG*      PTCLDY    64  59  82 S5        30.20S
MANASSAS*      PTCLDY    63  57  82 S6        30.19F
GAITHERSBURG*  CLEAR     64  55  72 S3        30.23S

$$

MDZ006>007-011-014-260900-
BALTIMORE METRO

CITY           SKY/WX    TMP DP  RH WIND       PRES   REMARKS
BWI AIRPORT    PTCLDY    64  59  83 CALM      30.19S
MD SCIENCE CTR   N/A     67  59  75 MISG      30.20S
MARTIN STATE   CLEAR     66  63  88 S3        30.21S
ANNAPOLIS      CLEAR     66  58  75 S6        30.20S
FORT MEADE*    CLEAR     55  54  94 CALM      30.22S

$$

MDZ012-015-019>023-260900-
MARYLAND EASTERN SHORE

CITY           SKY/WX    TMP DP  RH WIND       PRES   REMARKS
OCEAN CITY     CLEAR     66  63  90 SW6       30.26R
SALISBURY      CLEAR     60  58  92 CALM      30.25R
BAY BRIDGE AP*   N/A    N/A N/A N/A S13       30.20F
CAMBRIDGE*     CLEAR     72  61  68 S6        30.23S
EASTON*        CLEAR     69  63  79 SW10      30.25S

$$

MDZ017>025-260900-
SOUTHERN MARYLAND

CITY           SKY/WX    TMP DP  RH WIND       PRES   REMARKS
PATUXENT RIVER CLEAR     68  60  75 S13G18    30.23R
ST INIGOES     CLEAR     68  60  75 S9        30.23R
LEONARDTOWN*   CLEAR     66  59  77 SW10      30.25S

$$

MDZ003>005-260900-
NORTH CENTRAL MARYLAND

CITY           SKY/WX    TMP DP  RH WIND       PRES   REMARKS
FREDERICK*     CLEAR     61  59  94 CALM      30.20S
HAGERSTOWN APT CLEAR     69  56  62 S7        30.17F
WESTMINSTER*   CLEAR     64  61  88 CALM      30.20

$$

MDZ501>502-260900-
WESTERN MARYLAND

CITY           SKY/WX    TMP DP  RH WIND       PRES   REMARKS
OAKLAND*       PTCLDY    61  61 100 S7        30.26S
CUMBERLAND*    CLEAR     61  61 100 CALM      30.22S

$$

VAZ025>031-260900-
SHENANDOAH VALLEY

CITY           SKY/WX    TMP DP  RH WIND       PRES   REMARKS
WINCHESTER*    CLEAR     68  52  56 CALM      30.18S
FRONT ROYAL*   FAIR      66  55  68 SW7       30.17S
LURAY*         FAIR      64  57  77 SW5       30.21S
NEW MARKET*    FAIR      62  56  80 SW3       30.21R
STAUNTON*      CLEAR     58  54  87 CALM      30.25R
WAYNESBORO*    FAIR      57  54  87 CALM      30.24S

$$

WVZ021-048>050-054>055-260900-
EASTERN WEST VIRGINIA PANHANDLE

CITY           SKY/WX    TMP DP  RH WIND       PRES   REMARKS
MARTINSBURG    CLEAR     61  56  83 CALM      30.18S
PETERSBURG*    MOCLDY    61  56  84 W3        30.21S

$$

VAZ036>039-050-260900-
CENTRAL FOOTHILLS

CITY           SKY/WX    TMP DP  RH WIND       PRES   REMARKS
CHARLOTTESVILL CLEAR     62  56  80 S7        30.21S
CULPEPER*      PTCLDY    59  56  87 S3        30.21S
ORANGE*        CLEAR     59  55  88 CALM      30.23S
GORDONSVILLE*  FAIR      57  55  94 CALM      30.21S
WARRENTON*     FAIR      64  59  83 S5        30.20S

$$

VAZ055>057-260900-
NORTH AND CENTRAL PIEDMONT

CITY           SKY/WX    TMP DP  RH WIND       PRES   REMARKS
FREDERICKSBRG* PTCLDY    66  59  79 S6        30.21S
STAFFORD*      PTCLDY    62  57  83 SE3       30.25S

$$

NCZ024-NYZ072-PAZ021-071-VAZ022-071-260900-
OTHER REGIONAL OBSERVATIONS

CITY           SKY/WX    TMP DP  RH WIND       PRES   REMARKS
NEW YORK CITY  CLEAR     69  52  54 SW7       30.21S
PHILADELPHIA   PTCLDY    66  56  70 S8        30.21S
PITTSBURGH     CLOUDY    71  61  70 W8        30.16R
ROANOKE        PTCLDY    61  56  83 CALM      30.26S
RICHMOND       CLEAR     66  59  78 S8        30.24S
RALEIGH        MOCLDY    67  62  84 SW9       30.27S

$$

ANZ530>537-260900-
MARINE OBSERVATIONS

STATION/POSITION TIME  TEMP    WIND        PRES
                       AIR SEA DIR/SP/G
                 (UTC) (F)     (DEG/KT/KT) (MB)
THOMAS PT LIGHT  0800   68 66  190/ 15/ 16 1023.3R
BALT KEY BRIDGE  0700   68     190/  7/  9 1022.3F
LEWISETTA        0700   69 71              1023.5S
SOLOMONS ISLAND  0700      70                N/A
PINEY POINT      0700          230/ 15/ 17   N/A

$$




USA.gov is the U.S. government's official web portal to all federal, state and local government web resources and services.